[[{"header":{"parameterUnit":"m.s-1","parameterCategory":1,"la1":30.2991,"la2":30.254,"lo1":-89.0895,"lo2":-89.0444,"dy":0.0017,"dx":0.0017,"nx":28,"ny":28,"refTime":"2025-07-26T03:00:00:Z","depth":0,"parameterNumber":2,"parameterNumberName":"U-component_of_WINDS"},"data":[0,0,0,0,0,0,0,0,0,0,0,0,0,0,0,0,0,0,0,0,0,0,0,0,0,0,0,0,0,0,0,0,0,0,0,0,0,0,0,0,0,0,0,0,0,0,0,0,0,0,0,0,0,0,0,0,0,0,2.1236,2.1237,0,2.1371,2.1372,2.1374,2.1404,2.1403,2.1402,2.1401,2.1539,2.1544,2.1548,0,0,0,0,0,0,0,0,0,0,0,0,0,2.1001,2.1006,2.1236,2.1237,2.1239,2.1371,2.1373,2.1374,2.1404,2.1403,2.1401,2.14,2.1538,2.1543,2.1548,0,0,0,0,0,0,0,0,0,0,0,0,0,2.1117,2.1007,2.1235,2.127,2.1274,2.137,2.1373,2.1375,2.1404,2.1403,2.1401,2.14,2.1536,2.1542,2.1549,2.1621,0,0,2.157,2.1573,0,0,0,0,0,0,0,0,2.111,2.1125,2.1263,2.1267,2.1272,2.1369,2.1341,2.1457,2.1404,2.1355,2.1401,2.1399,2.1484,2.1495,2.1523,2.1627,2.1633,2.1571,2.1575,2.1578,2.158,0,0,0,0,0,0,0,2.1102,2.1119,2.1289,2.1265,2.1271,2.1278,2.1292,2.1363,2.1426,2.1359,2.1361,2.1377,2.1486,2.1517,2.1527,2.1635,2.1571,2.1577,2.1581,2.1584,2.1803,2.1805,0,0,0,0,0,0,2.1088,2.1113,2.1285,2.1293,2.1186,2.1283,2.13,2.1339,2.1425,2.1437,2.1378,2.1378,2.1506,2.1519,2.1532,2.162,2.1578,2.1584,2.1588,2.1801,2.1804,2.1805,0,0,0,0,0,0,2.1083,2.1103,2.1279,2.1204,2.1227,2.1289,2.1333,2.1343,2.1373,2.144,2.1451,2.1398,2.1505,2.1522,2.1598,2.1625,2.1587,2.1594,2.1799,2.1802,2.1804,2.1797,0,0,0,0,0,0,2.1076,2.1101,2.1129,2.1204,2.1231,2.1344,2.1335,2.1347,2.1385,2.1386,2.1461,2.1472,2.1505,2.1588,2.1605,2.1634,2.1599,2.1797,2.1801,2.1804,2.1795,2.1799,2.1802,0,0,0,0,0,2.1068,2.1122,2.1131,2.1151,2.1267,2.1345,2.136,2.1397,2.1387,2.1416,2.1458,2.147,2.1619,2.1595,2.1615,2.1646,2.1796,2.18,2.1803,2.1793,2.1798,2.1802,0,0,0,0,0,0,2.1049,2.1133,2.1143,2.1224,2.1277,2.135,2.1387,2.1402,2.1459,2.1457,2.1501,2.1518,2.159,2.1626,2.1598,2.1719,2.1707,2.1715,2.1693,2.1698,2.1701,2.169,2.1605,0,0,0,0,0,2.1055,2.1111,2.1181,2.1245,2.1272,2.1325,2.136,2.1384,2.1441,2.1464,2.1512,2.1567,2.1626,2.1664,2.1723,2.1801,2.1816,2.1832,2.1835,2.1838,2.1844,2.1886,2.1893,2.1818,2.1818,2.1818,0,0,2.1066,2.1119,2.1152,2.1243,2.1287,2.1344,2.1344,2.1405,2.1447,2.1473,2.1547,2.1584,2.1649,2.1725,2.1762,2.1757,2.1868,2.1843,2.1844,2.1849,2.1891,2.1898,2.1904,2.1821,2.182,2.182,0,0,2.1116,2.1162,2.122,2.1264,2.1331,2.1366,2.1379,2.1451,2.1476,2.1551,2.1571,2.1623,2.1724,2.1768,2.1804,2.1869,2.1882,2.1887,2.1906,2.1946,2.1952,2.1957,2.1979,2.1986,2.1893,2.1893,2.1893,0,2.1122,2.1209,2.1248,2.1307,2.1346,2.1372,2.143,2.1471,2.1554,2.1579,2.1574,2.1701,2.1746,2.1832,2.1848,2.1877,2.1893,2.1878,2.1948,2.1954,2.1959,2.198,2.1989,2.1894,2.1894,2.1894,2.1894,0,2.1211,2.1271,2.131,2.1388,2.1432,2.149,2.1537,2.1576,2.1596,2.1631,2.1706,2.1761,2.183,2.1853,2.1874,2.1942,2.1937,2.1939,2.1928,2.1966,2.1986,2.1995,2.1894,2.1894,2.1894,2.1894,0,0,2.1253,2.1352,2.1365,2.14,2.1475,2.1522,2.1581,2.1649,2.168,2.1737,2.1786,2.1871,2.1873,2.1914,2.1939,2.1975,2.2021,2.1973,2.1975,2.1978,2.2098,2.2094,2.2103,2.203,2.2032,2.2033,2.2092,0,2.131,2.1417,2.1453,2.1541,2.1596,2.1621,2.1672,2.1724,2.1758,2.1809,2.1847,2.1906,2.1905,2.1929,2.1966,2.2007,2.2045,2.2004,2.2075,2.2077,2.2056,2.2114,2.2111,2.2164,2.21,2.2101,2.2102,0,2.1392,2.1448,2.1541,2.1608,2.1632,2.1678,2.1741,2.179,2.1849,2.1871,2.1916,2.1938,2.2,2.1986,2.2071,2.2042,2.2074,2.2099,2.2101,2.2108,2.2091,2.212,2.2182,2.2189,2.2116,2.2115,2.2114,0,2.141,2.1509,2.1577,2.1607,2.1687,2.1718,2.1753,2.181,2.1848,2.1904,2.1928,2.1991,2.2024,2.2072,2.2111,2.2097,2.2192,2.2181,2.2211,2.221,2.2228,2.2226,2.2293,2.2251,2.2251,2.2251,2.2251,0,2.1469,2.1524,2.1586,2.1628,2.169,2.1731,2.1792,2.1828,2.1878,2.1927,2.1954,2.1998,2.2047,2.2099,2.2129,2.2194,2.221,2.2229,2.2236,2.2225,2.2223,2.2245,2.2242,2.2253,2.2253,2.2252,2.2252,0,2.15,2.1543,2.1619,2.1688,2.1707,2.175,2.1809,2.185,2.1885,2.1946,2.1963,2.2018,2.208,2.2123,2.2203,2.2223,2.2292,2.23,2.2272,2.2276,2.2302,2.2298,2.2385,2.2398,2.2348,2.2349,2.2349,0,2.1534,2.1577,2.1651,2.1685,2.172,2.1775,2.1813,2.1855,2.1894,2.1963,2.1995,2.2058,2.2111,2.2208,2.2254,2.2315,2.2323,2.235,2.2333,2.232,2.2322,2.2318,2.2322,2.2352,2.2352,2.2352,2.2352,0,2.1589,2.1608,2.1662,2.1724,2.1768,2.1819,2.187,2.1896,2.1947,2.1989,2.2052,2.2092,2.2173,2.2235,2.23,2.2335,2.2352,2.2358,2.2367,2.2356,2.2337,2.2346,2.2277,2.2355,2.2355,2.2355,2.2354,2.2354,2.1621,2.166,2.1717,2.1776,2.1819,2.1865,2.1906,2.1947,2.2,2.2068,2.209,2.2155,2.2211,2.23,2.2336,2.2387,2.2385,2.24,2.2403,2.2406,2.2404,2.233,2.2399,2.2399,2.2399,2.2399,2.2399,0,2.1676,2.1714,2.1768,2.1837,2.1883,2.1895,2.1952,2.1989,2.2046,2.2097,2.2148,2.2219,2.2279,2.2331,2.2393,2.2424,2.2433,2.2438,2.2436,2.2443,2.2403,2.2387,2.243,2.243,2.243,2.243,2.243,2.243,2.1709,2.1775,2.1801,2.1887,2.1925,2.1988,2.2019,2.2062,2.2103,2.2181,2.2231,2.2264,2.2315,2.2381,2.2436,2.2449,2.247,2.2474,2.2489,2.245,2.2446,2.2443,2.2428,2.2478,2.2478,2.2524,2.2525,2.2525]},{"header":{"parameterUnit":"m.s-1","parameterCategory":1,"la1":30.2991,"la2":30.254,"lo1":-89.0895,"lo2":-89.0444,"dy":0.0017,"dx":0.0017,"nx":28,"ny":28,"refTime":"2025-07-26T03:00:00:Z","depth":0,"parameterNumber":3,"parameterNumberName":"V-component_of_WINDS"},"data":[0,0,0,0,0,0,0,0,0,0,0,0,0,0,0,0,0,0,0,0,0,0,0,0,0,0,0,0,0,0,0,0,0,0,0,0,0,0,0,0,0,0,0,0,0,0,0,0,0,0,0,0,0,0,0,0,0,0,2.7956,2.7955,0,2.7906,2.7905,2.7905,2.7843,2.7842,2.7841,2.784,2.7789,2.7788,2.7788,0,0,0,0,0,0,0,0,0,0,0,0,0,2.7997,2.7996,2.7956,2.7955,2.7955,2.7906,2.7905,2.7905,2.7843,2.7842,2.7841,2.784,2.7789,2.7788,2.7788,0,0,0,0,0,0,0,0,0,0,0,0,0,2.7966,2.7996,2.7956,2.7918,2.7914,2.7906,2.7905,2.7905,2.7844,2.7842,2.7841,2.7839,2.7789,2.7788,2.7788,2.7813,0,0,2.7786,2.7785,0,0,0,0,0,0,0,0,2.7968,2.7965,2.7924,2.7921,2.7917,2.7879,2.7901,2.7874,2.7844,2.7871,2.784,2.7839,2.782,2.7817,2.7811,2.781,2.7808,2.7786,2.7785,2.7785,2.7785,0,0,0,0,0,0,0,2.797,2.7967,2.7936,2.7924,2.7919,2.7903,2.7897,2.7895,2.7854,2.7868,2.7864,2.7859,2.7818,2.7811,2.7809,2.7807,2.7786,2.7785,2.7785,2.7784,2.7822,2.7823,0,0,0,0,0,0,2.7978,2.7969,2.7938,2.7935,2.7939,2.7904,2.7897,2.7893,2.7854,2.7847,2.786,2.7856,2.7813,2.781,2.7807,2.7831,2.7785,2.7784,2.7784,2.7821,2.7822,2.7824,0,0,0,0,0,0,2.7979,2.7976,2.794,2.795,2.7945,2.7905,2.79,2.7893,2.7886,2.7848,2.784,2.7861,2.7812,2.7808,2.7811,2.7829,2.7784,2.7783,2.7819,2.7821,2.7823,2.7882,0,0,0,0,0,0,2.7981,2.7977,2.7986,2.7951,2.7944,2.7946,2.7901,2.7893,2.7885,2.788,2.7847,2.784,2.7811,2.7813,2.781,2.7827,2.7783,2.7817,2.782,2.7823,2.7879,2.7886,2.7893,0,0,0,0,0,2.7982,2.8005,2.7987,2.7984,2.7955,2.7947,2.7943,2.7909,2.7887,2.7896,2.7871,2.7841,2.7828,2.7813,2.7811,2.7827,2.7816,2.7819,2.7822,2.7875,2.7885,2.7893,0,0,0,0,0,0,2.8043,2.8,2.7979,2.7991,2.7973,2.7936,2.7946,2.792,2.7907,2.7903,2.7861,2.7854,2.7862,2.7845,2.783,2.7848,2.7817,2.782,2.7859,2.7867,2.7874,2.7878,2.7782,0,0,0,0,0,2.8058,2.8055,2.8017,2.8032,2.8024,2.7987,2.7982,2.7957,2.7936,2.7928,2.7904,2.7884,2.7875,2.7871,2.7861,2.7876,2.7867,2.7886,2.7893,2.7899,2.7902,2.7907,2.7914,2.7835,2.7834,2.7834,0,0,2.8089,2.8065,2.8066,2.8043,2.8026,2.8023,2.7981,2.798,2.7977,2.7928,2.7929,2.791,2.7886,2.7895,2.7898,2.7881,2.7922,2.7903,2.7909,2.7908,2.7911,2.7919,2.7925,2.7837,2.7836,2.7836,0,0,2.8143,2.8125,2.8134,2.8118,2.8093,2.8068,2.807,2.8037,2.8023,2.8023,2.7986,2.7982,2.7968,2.7951,2.7941,2.7988,2.796,2.7986,2.8023,2.8028,2.8034,2.804,2.8055,2.8061,2.7989,2.7989,2.7989,0,2.8184,2.8179,2.8143,2.8144,2.8134,2.809,2.8098,2.8084,2.8057,2.8051,2.8033,2.8013,2.7994,2.7998,2.8009,2.8003,2.8003,2.7989,2.8037,2.8041,2.8046,2.806,2.8066,2.7992,2.7992,2.7992,2.7991,0,2.823,2.8227,2.8237,2.8212,2.8203,2.8208,2.8172,2.8168,2.8144,2.8121,2.8121,2.8096,2.8079,2.8078,2.8055,2.8078,2.8068,2.8044,2.8012,2.8057,2.8069,2.8075,2.7997,2.7996,2.7995,2.7994,0,0,2.8321,2.8275,2.8279,2.8266,2.8234,2.8231,2.8233,2.8217,2.8213,2.8196,2.8196,2.8185,2.8161,2.815,2.8124,2.8129,2.8165,2.8104,2.8103,2.8115,2.8187,2.8205,2.8211,2.8147,2.8148,2.8148,2.8189,0,2.8368,2.8369,2.8336,2.8346,2.8342,2.8299,2.8301,2.8281,2.826,2.8252,2.8228,2.822,2.8191,2.8183,2.8187,2.8161,2.8179,2.8157,2.8145,2.8145,2.8151,2.8218,2.8237,2.8276,2.8193,2.8194,2.8195,0,2.8423,2.8408,2.8418,2.8385,2.8382,2.8384,2.8365,2.8359,2.8335,2.8319,2.8306,2.8276,2.8275,2.8245,2.8242,2.8228,2.822,2.8207,2.8208,2.8204,2.8172,2.8215,2.8288,2.8293,2.8202,2.8202,2.8201,0,2.8486,2.8469,2.8472,2.8463,2.8424,2.8427,2.8411,2.8386,2.8377,2.8361,2.8355,2.8339,2.833,2.8317,2.8283,2.8266,2.8283,2.8251,2.8268,2.8269,2.8273,2.8273,2.8344,2.8271,2.8271,2.8271,2.8271,0,2.8541,2.8549,2.85,2.8502,2.8508,2.847,2.8477,2.8457,2.8434,2.8431,2.8393,2.839,2.8347,2.8339,2.8312,2.8312,2.8309,2.8294,2.8287,2.8297,2.8299,2.8291,2.8287,2.8273,2.8272,2.8272,2.8272,0,2.8613,2.858,2.8581,2.8544,2.8535,2.8541,2.851,2.8509,2.8485,2.8481,2.8477,2.8439,2.8427,2.8393,2.8373,2.8355,2.8362,2.8349,2.837,2.8365,2.8383,2.8381,2.8451,2.8457,2.8382,2.8382,2.8383,0,2.8649,2.8654,2.8618,2.8613,2.8598,2.8591,2.8582,2.8544,2.8536,2.8509,2.8512,2.8497,2.8483,2.8466,2.8436,2.8419,2.8405,2.843,2.8402,2.8411,2.8403,2.8403,2.8402,2.8436,2.8437,2.8438,2.8439,0,2.8717,2.8701,2.869,2.8673,2.8664,2.8649,2.8631,2.8629,2.8587,2.858,2.8567,2.8557,2.8535,2.8521,2.8499,2.8481,2.8453,2.8448,2.8451,2.846,2.8471,2.8464,2.8385,2.8446,2.8446,2.8445,2.8445,2.8444,2.8771,2.8772,2.8747,2.8735,2.8718,2.8703,2.87,2.8675,2.8665,2.8644,2.8623,2.8612,2.8587,2.8555,2.854,2.853,2.8515,2.8519,2.852,2.8521,2.8525,2.8474,2.8526,2.8526,2.8526,2.8525,2.8525,0,2.8835,2.8816,2.8806,2.8783,2.8774,2.8748,2.8728,2.8721,2.8713,2.8692,2.8679,2.8664,2.8649,2.8617,2.8599,2.8598,2.8584,2.8594,2.8593,2.8589,2.8541,2.8539,2.8605,2.8605,2.8605,2.8605,2.8605,2.8605,2.8867,2.8868,2.8848,2.8839,2.882,2.881,2.88,2.8785,2.8768,2.8753,2.8741,2.872,2.8694,2.8674,2.8659,2.8649,2.8644,2.8658,2.8645,2.86,2.8592,2.8585,2.8584,2.8658,2.8658,2.8693,2.8693,2.8694]}]]